Погода в Сузану

Бразилия     23°32′21″S   46°18′30″W
темп.,
°C
ветер,
м/с
пор.,
м/с
влажн.,
%
обл.,
%
осадки,
мм/ч
давл.,
гПа
погр.,
м
27 февраля, сб
сб2700:00+18всв1498100 1.7 1014206
03:00+17всв129888 1.7 101387
06:00+17в119873 0.0 101487
09:00+18всв129486 0.0 1015231
12:00+21в2282100 0.1 1015351
15:00+23в348476 2.6 1013581
18:00+20вюв259262 5.1 1013277
21:00+18в139481 7.0 1014122
28 февраля, вс
вс2800:00+18в1294100 0.3 101583
03:00+18всв129498 0.3 101382
06:00+18ссв129597 0.0 101480
09:00+19св249398 0.0 1015263
12:00+28св135569 0.0 10141170
15:00+24ссв127660 2.3 1012349
18:00+20вюв379295 3.9 1012249
21:00+19вюв129498 7.9 101478
1 марта, пн
пн100:00+18в129587 0.8 101455
03:00+17св239782 0.8 1012121
06:00+16ссв129731 0.0 101380
09:00+21ссв238563 0.0 1014303
12:00+26с236596 1.4 1013960
15:00+28с225287 1.9 10111136
18:00+22вюв138425 1.3 1011149
21:00+19вюв119061 1.8 101350
2 марта, вт
вт200:00+19св119099 0.0 101343
03:00+18ссв119390 0.0 101244
06:00+17ссв129598 0.0 101344
09:00+22с238399 0.0 1014324
12:00+28ссз2457100 0.3 10141356
15:00+27с236893 4.6 1012944
18:00+22юв248594 3.7 1012152
21:00+19юв119197 5.6 101457
3 марта, ср
ср300:00+19св0190100 1.4 101542
03:00+19ссв1193100 1.6 101449
06:00+18ссв119497 1.6 101535
09:00+21ссв129199 4.3 101797
12:00+23с2583100 1.7 1016808
15:00+25с247394 3.9 1014648
18:00+22св2387100 1.6 1013139
21:00+20св2291100 2.6 101567